Location: Waco, TX
(31.5480°N, 97.1670°W)
Time: 02:26:16
(UTC-06:00)

ISS - Pass Details

Date: 09 November 2018
Orbit: 401 x 408 km, 51.6° (Epoch: 20 November)

Event Time Altitude Azimuth Distance (km) Brightness Sun altitude
Rises 09:10:56 0° 295° (WNW) 2,322 -0.5 24.8°
Reaches altitude 10° 09:13:37 10° 271° (W) 1,460 -1.4 25.2°
Maximum altitude 09:15:37 15° 233° (SW) 1,181 -1.5 25.6°
Drops below altitude 10° 09:17:37 10° 195° (SSW) 1,457 -0.6 25.9°
Sets 09:20:18 0° 172° (S) 2,314 0.8 26.3°
